Weather History for KLSB - March, 2013

Change the Weather History Date:

Saturday, March 16, 2013

  Actual Average Record
Temperature  
Mean Temperature 63 °F -  
Max Temperature 82 °F 70 °F 82 °F (2013)
Min Temperature 44 °F 30 °F 32 °F (2014)
Degree Days  
Heating Degree Days 2    
Growing Degree Days 13 (Base 50)    
Moisture  
Dew Point 17 °F    
Average Humidity 18    
Maximum Humidity 37    
Minimum Humidity 7    
Precipitation  
Precipitation 0.00 in - - ()
Sea Level Pressure  
Sea Level Pressure 29.94 in    
Wind  
Wind Speed 8 mph (WNW)    
Max Wind Speed 25 mph    
Max Gust Speed 32 mph    
Visibility 10 miles    
Events      
Averages and records for this station are not official NWS values.
T = Trace of Precipitation, MM = Missing Value Source: NWS Daily Summary

Daily Weather History Graph

Daily Weather History Graph

Search for Another Location

Airport or City:

Trip Planner

Search our weather history database for the weather conditions in past years. The results will help you decide how hot, cold, wet, or windy it might be!

Date:

Astronomy

Mar. 16, 2013 Rise Set
Actual Time 7:23 AM MDT 7:23 PM MDT
Civil Twilight 6:58 AM MDT 7:48 PM MDT
Nautical Twilight 6:30 AM MDT 8:16 PM MDT
Astronomical Twilight 6:01 AM MDT 8:45 PM MDT
Moon 10:12 AM MDT (3/16) No Moon Set
Length of Visible Light 12h 49m
Length of Day
12h 00m
Waxing Crescent, 23% of the Moon is Illuminated
Mar 16
Waxing Crescent
Mar 19
First Quarter
Mar 27
Full
Apr 2
Last Quarter
Apr 10
New

Hourly Weather History & Observations

Time (MDT) Temp. Dew Point Humidity Pressure Visibility Wind Dir Wind Speed Gust Speed Precip Events Conditions
12:15 AM 60.8 °F 19.4 °F 20% 30.03 in 10.0 mi WNW 9.2 mph - N/A   Clear
12:35 AM 59.0 °F 17.6 °F 20% 30.03 in 10.0 mi Calm Calm - N/A   Clear
12:55 AM 53.6 °F 19.4 °F 26% 30.03 in 10.0 mi Calm Calm - N/A   Clear
1:15 AM 53.6 °F 19.4 °F 26% 30.03 in 10.0 mi NNW 3.5 mph - N/A   Clear
1:35 AM 53.6 °F 19.4 °F 26% 30.02 in 10.0 mi WNW 4.6 mph - N/A   Clear
1:55 AM 53.6 °F 17.6 °F 24% 30.02 in 10.0 mi West 8.1 mph - N/A   Clear
2:15 AM 51.8 °F 19.4 °F 28% 30.01 in 10.0 mi Calm Calm - N/A   Clear
2:35 AM 51.8 °F 21.2 °F 30% 30.01 in 10.0 mi NNW 5.8 mph - N/A   Clear
2:55 AM 51.8 °F 19.4 °F 28% 30.00 in 10.0 mi NW 6.9 mph - N/A   Clear
3:15 AM 51.8 °F 17.6 °F 26% 30.00 in 10.0 mi NNW 8.1 mph - N/A   Clear
3:35 AM 53.6 °F 17.6 °F 24% 29.99 in 10.0 mi NW 6.9 mph - N/A   Clear
4:15 AM 51.8 °F 19.4 °F 28% 29.99 in 10.0 mi NW 6.9 mph - N/A   Clear
4:35 AM 50.0 °F 17.6 °F 28% 29.99 in 10.0 mi NW 6.9 mph - N/A   Clear
4:55 AM 50.0 °F 19.4 °F 30% 29.99 in 10.0 mi NW 8.1 mph - N/A   Clear
5:15 AM 48.2 °F 17.6 °F 30% 29.99 in 10.0 mi WNW 6.9 mph - N/A   Clear
5:35 AM 50.0 °F 17.6 °F 28% 29.99 in 10.0 mi West 6.9 mph - N/A   Clear
5:55 AM 50.0 °F 17.6 °F 28% 29.99 in 10.0 mi West 6.9 mph - N/A   Clear
6:15 AM 50.0 °F 17.6 °F 28% 29.99 in 10.0 mi Calm Calm - N/A   Clear
6:35 AM 50.0 °F 19.4 °F 30% 29.99 in 10.0 mi Calm Calm - N/A   Clear
6:55 AM 48.2 °F 19.4 °F 32% 29.99 in 10.0 mi North - - N/A   Clear
7:15 AM 48.2 °F 19.4 °F 32% 30.00 in 10.0 mi Calm Calm - N/A   Clear
7:35 AM 44.6 °F 19.4 °F 37% 30.00 in 10.0 mi Calm Calm - N/A   Clear
7:55 AM 50.0 °F 19.4 °F 30% 30.00 in 10.0 mi Calm Calm - N/A   Clear
8:15 AM 51.8 °F 21.2 °F 30% 30.00 in 10.0 mi Calm Calm - N/A   Clear
8:35 AM 51.8 °F 21.2 °F 30% 30.00 in 10.0 mi Calm Calm - N/A   Clear
8:55 AM 53.6 °F 21.2 °F 28% 30.01 in 10.0 mi Calm Calm - N/A   Clear
9:15 AM 59.0 °F 23.0 °F 25% 30.01 in 10.0 mi Calm Calm - N/A   Clear
9:35 AM 60.8 °F 23.0 °F 23% 30.01 in 10.0 mi Calm Calm - N/A   Clear
9:55 AM 64.4 °F 23.0 °F 21% 30.01 in 10.0 mi Calm Calm - N/A   Clear
10:15 AM 68.0 °F 23.0 °F 18% 30.01 in 10.0 mi Calm Calm - N/A   Clear
10:35 AM 69.8 °F 24.8 °F 18% 30.01 in 10.0 mi NNW 4.6 mph - N/A   Clear
10:55 AM 73.4 °F 26.6 °F 18% 30.01 in 10.0 mi West 8.1 mph - N/A   Clear
11:15 AM 73.4 °F 24.8 °F 16% 30.00 in 10.0 mi WNW 6.9 mph - N/A   Clear
11:35 AM 77.0 °F 21.2 °F 12% 30.00 in 10.0 mi West 13.8 mph 17.3 mph N/A   Clear
11:55 AM 77.0 °F 21.2 °F 12% 29.99 in 10.0 mi West 17.3 mph 21.9 mph N/A   Clear
12:15 PM 77.0 °F 21.2 °F 12% 29.98 in 10.0 mi North - - N/A   Clear
12:35 PM 78.8 °F 17.6 °F 10% 29.98 in 10.0 mi West 17.3 mph 23.0 mph N/A   Clear
12:55 PM 78.8 °F 15.8 °F 9% 29.97 in 10.0 mi WNW 11.5 mph 24.2 mph N/A   Clear
1:15 PM 78.8 °F 17.6 °F 10% 29.95 in 10.0 mi WNW 18.4 mph 26.5 mph N/A   Clear
1:35 PM 80.6 °F 17.6 °F 10% 29.94 in 10.0 mi WNW 16.1 mph 28.8 mph N/A   Clear
1:55 PM 80.6 °F 17.6 °F 10% 29.93 in 10.0 mi West 20.7 mph 26.5 mph N/A   Clear
2:15 PM 80.6 °F 17.6 °F 10% 29.91 in 10.0 mi West 19.6 mph 27.6 mph N/A   Clear
2:35 PM 82.4 °F 12.2 °F 7% 29.90 in 10.0 mi West 19.6 mph 29.9 mph N/A   Clear
2:55 PM 80.6 °F 14.0 °F 8% 29.89 in 10.0 mi West 13.8 mph 27.6 mph N/A   Clear
3:15 PM 80.6 °F 14.0 °F 8% 29.88 in 10.0 mi WNW 17.3 mph 32.2 mph N/A   Clear
3:35 PM 78.8 °F 14.0 °F 9% 29.87 in 10.0 mi WNW 15.0 mph 25.3 mph N/A   Clear
3:55 PM 80.6 °F 10.4 °F 7% 29.86 in 10.0 mi West 25.3 mph 32.2 mph N/A   Clear
4:15 PM 82.4 °F 12.2 °F 7% 29.86 in 10.0 mi WNW 24.2 mph 32.2 mph N/A   Clear
4:35 PM 80.6 °F 10.4 °F 7% 29.85 in 10.0 mi WNW 20.7 mph 29.9 mph N/A   Clear
4:55 PM 80.6 °F 12.2 °F 8% 29.85 in 10.0 mi WNW 19.6 mph 28.8 mph N/A   Clear
5:15 PM 78.8 °F 12.2 °F 8% 29.85 in 10.0 mi WNW 18.4 mph 26.5 mph N/A   Clear
5:35 PM 80.6 °F 12.2 °F 8% 29.84 in 10.0 mi NW 18.4 mph 21.9 mph N/A   Clear
5:55 PM 78.8 °F 14.0 °F 9% 29.84 in 10.0 mi WNW 18.4 mph 26.5 mph N/A   Clear
6:15 PM 78.8 °F 15.8 °F 9% 29.84 in 10.0 mi WNW 10.4 mph 23.0 mph N/A   Clear
6:35 PM 77.0 °F 14.0 °F 9% 29.84 in 10.0 mi WNW 12.7 mph 25.3 mph N/A   Clear
6:55 PM 77.0 °F 12.2 °F 9% 29.84 in 10.0 mi West 10.4 mph 20.7 mph N/A   Clear
7:15 PM 75.2 °F 12.2 °F 9% 29.84 in 10.0 mi WNW 12.7 mph - N/A   Clear
7:35 PM 71.6 °F 17.6 °F 13% 29.84 in 10.0 mi West 11.5 mph - N/A   Clear
7:55 PM 71.6 °F 17.6 °F 13% 29.85 in 10.0 mi WNW 11.5 mph - N/A   Clear
8:15 PM 69.8 °F 17.6 °F 14% 29.86 in 10.0 mi West 9.2 mph - N/A   Clear
8:35 PM 66.2 °F 17.6 °F 15% 29.86 in 10.0 mi West 9.2 mph - N/A   Clear
8:55 PM 64.4 °F 15.8 °F 15% 29.87 in 10.0 mi West 10.4 mph - N/A   Clear
9:15 PM 66.2 °F 12.2 °F 12% 29.88 in 10.0 mi North - - N/A   Clear
9:35 PM 66.2 °F 10.4 °F 11% 29.89 in 10.0 mi North - - N/A   Clear
9:55 PM 64.4 °F 10.4 °F 12% 29.90 in 10.0 mi West 10.4 mph - N/A   Clear
10:15 PM 64.4 °F 10.4 °F 12% 29.90 in 10.0 mi West 10.4 mph - N/A   Clear
10:35 PM 64.4 °F 10.4 °F 12% 29.90 in 10.0 mi West 11.5 mph - N/A   Clear
10:55 PM 64.4 °F 14.0 °F 14% 29.91 in 10.0 mi West 11.5 mph - N/A   Clear
11:15 PM 64.4 °F 17.6 °F 16% 29.91 in 10.0 mi West 11.5 mph - N/A   Clear
11:35 PM 62.6 °F 19.4 °F 19% 29.91 in 10.0 mi West 11.5 mph - N/A   Clear
11:55 PM 62.6 °F 19.4 °F 19% 29.91 in 10.0 mi West 10.4 mph - N/A   Clear